User: anonymous   Login
Location: Unspecified
(0.0000°N, 0.0000°E)
Time: 07:39:27
(UTC+00:00)
Language:

GEOEYE 1 - Orbit

View from above orbital plane
View from above orbital plane
View from above satellite
View from above satellite

Ground track
Ground track

The orbit data is extracted from the following two-line orbital elements,

1 33331U 08042A   14303.82951058  .00001012  00000-0  20092-3 0  7578
2 33331 098.1260 017.0536 0010627 047.5626 312.6435 14.64241869328562
Epoch (UTC): 30 October 2014 19:54:29
Eccentricity: 0.0010627
inclination: 98.1260°
perigee height: 672 km
apogee height: 687 km
right ascension of ascending node: 17.0536°
argument of perigee: 47.5626°
revolutions per day: 14.64241869
mean anomaly at epoch: 312.6435°
orbit number at epoch: 32856

The dashed part of the orbit path shows where the satellite is in the earth's shadow,  

DLR